Flag for New Zealand Weather past 2 weeks in Auckland, New Zealand

Now
70 °F

Low clouds.


Feels Like: 70 °F
Forecast: 63 / 74 °F
Wind: 14 mph from Northeast

Location: Auckland Airport

Current Time: Dec 20, 2014 at 10:45:11 AM

Latest Report: Dec 20, 2014 at 10:00 AM


Visibility: N/A

Pressure: 30.01 "Hg

Humidity: 88%

Dew point: 66 °F

Location of AucklandLocation

Historic Weather in Auckland — Graph

°F

Auckland temperature yesterday

Maximum temperature yesterday: 77 °F (at 1:30 PM)
Minimum temperature yesterday: 59 °F (at 4:00 AM)
Average temperature yesterday: 68 °F

Past Weeks' High & Low Weather Summary

 TemperatureHumidityPressure
High77 °F (Dec 19, 1:30 PM)100% (Dec 6, 4:30 AM)30.24 "Hg (Dec 6, 4:30 AM)
Low57 °F (Dec 13, 11:30 PM)57% (Dec 10, 12:30 PM)29.68 "Hg (Dec 14, 5:00 PM)
Average64 °F83%29.97 "Hg
* Reported Dec 5 9:00 AM — Dec 20 9:30 AM, Auckland, Weather by CustomWeather, © 2014

Note: Actual official high and low records may vary slightly from our data, if they occured in-between our weather recording intervals... More about our weather records

Advertising

Auckland weather history for previous 24 hours

 ConditionsComfort  
Time TempWeatherWind HumidityBarometerVisibility
9:30 AM
Dec 20
70 °FPartly sunny.12 mph88%30.01 "HgN/A
9:00 AM68 °FMore clouds than sun.10 mph94%30.04 "HgN/A
8:30 AM68 °FLow clouds.10 mph94%30.04 "HgN/A
8:00 AM66 °FPartly sunny.9 mph100%30.01 "HgN/A
7:30 AM64 °FMild.6 mph100%30.04 "HgN/A
7:00 AM64 °FMild.6 mph94%30.01 "HgN/A
6:30 AM63 °FMild.5 mph100%30.04 "HgN/A
6:00 AM63 °FMild.3 mph100%30.04 "HgN/A
5:30 AM63 °FMild.5 mph100%30.04 "HgN/A
5:00 AM64 °FMild.5 mph94%30.04 "HgN/A
4:30 AM64 °FPassing clouds.8 mph100%30.04 "HgN/A
4:00 AM63 °FMild.6 mph100%30.04 "HgN/A
3:30 AM63 °FMild.5 mph100%30.04 "HgN/A
3:00 AM63 °FMild.6 mph100%30.07 "HgN/A
2:30 AM63 °FMild.5 mph100%30.07 "HgN/A
2:00 AM63 °FMild.5 mph100%30.07 "HgN/A
1:30 AM63 °FMild.5 mph100%30.07 "HgN/A
1:00 AM64 °FPassing clouds.5 mph94%30.07 "HgN/A
12:30 AM66 °FOvercast.3 mph88%30.09 "HgN/A
12:00 AM64 °FPassing clouds.3 mph94%30.09 "HgN/A
11:30 PM
Dec 19
64 °FPassing clouds.3 mph94%30.07 "HgN/A
11:00 PM64 °FPassing clouds.5 mph94%30.09 "HgN/A
10:30 PM66 °FPassing clouds.3 mph88%30.09 "HgN/A
10:00 PM66 °FPassing clouds.5 mph88%30.07 "HgN/A
9:30 PM68 °FMild.6 mph83%30.07 "HgN/A
9:00 PM68 °FMild.7 mph83%30.07 "HgN/A
8:30 PM68 °FPassing clouds.6 mph83%30.04 "HgN/A
8:00 PM72 °FMild.7 mph73%30.04 "HgN/A
7:30 PM73 °FMild.6 mph69%30.04 "HgN/A
7:00 PM75 °FScattered clouds.8 mph61%30.04 "HgN/A
6:30 PM75 °FScattered clouds.8 mph69%30.04 "HgN/A
6:00 PM75 °FOvercast.10 mph65%30.04 "HgN/A
5:30 PM75 °FPartly sunny.10 mph65%30.04 "HgN/A
4:30 PM77 °FWarm.9 mph61%30.04 "HgN/A
4:00 PM77 °FPassing clouds.10 mph61%30.04 "HgN/A
3:30 PM77 °FScattered clouds.12 mph61%30.04 "HgN/A
3:00 PM77 °FPartly sunny.8 mph69%30.04 "HgN/A
2:30 PM75 °FPartly sunny.3 mph65%30.07 "HgN/A
2:00 PM75 °FPassing clouds.6 mph65%30.07 "HgN/A
1:30 PM77 °FPartly sunny.6 mph65%30.07 "HgN/A
1:00 PM75 °FPartly sunny.5 mph65%30.07 "HgN/A
12:30 PM75 °FPassing clouds.6 mph61%30.07 "HgN/A
12:00 PM73 °FMild.6 mph65%30.07 "HgN/A
11:30 AM73 °FMild.6 mph69%30.07 "HgN/A
11:00 AM73 °FMild.3 mph65%30.09 "HgN/A
10:30 AM72 °FMild.5 mph65%30.09 "HgN/A
10:00 AM70 °FPassing clouds.9 mph69%30.09 "HgN/A
Weather by CustomWeather, © 2014

See weather overviewHow to use our weather pages